Location: Poughquag
(41.6090°N, 73.6820°W)
Time: 12:53:26
(UTC-04:00)

Tiros 1 despin weight - Pass Details

Date: 06 June 2020
Orbit: 593 x 642 km, 48.2° (Epoch: 07 July)

Event Time Altitude Azimuth Distance (km) Brightness Sun altitude
Rises 16:07:11 0° 283° (WNW) 2,880 ? 45.6°
Reaches altitude 10° 16:10:45 10° 254° (WSW) 1,957 ? 45.0°
Maximum altitude 16:12:39 13° 229° (SW) 1,784 ? 44.6°
Drops below altitude 10° 16:14:33 10° 204° (SSW) 1,940 ? 44.3°
Sets 16:18:03 0° 175° (S) 2,826 ? 43.6°
